Presure
249 254 257 258 257 256 264 233 232 223 234 133 113 126 125 233 226 127 139 135 141 125 134 214 215 232 133 224 225 137 189 199 193 193 202 113 207 188 197 213 205 205 194 196
239 258 253 263 259 255 231 227 227 228 232 229 149 152 203 204 177 139 151 163 219 216 216 205 218 217 212 165 148 217 219 214 214 142 220 206 207 205 197 203 203 198 197 202
242 239 255 254 251 237 227 221 228 227 222 227 240 230 229 236 223 237 233 223 220 216 215 216 216 215 176 203 205 207 205 206 204 201 200 196 194 196 198 199 207 217 231 215
230 226 255 247 229 233 228 220 215 220 222 218 222 226 230 208 228 222 218 211 215 216 213 218 213 203 217 212 203 206 212 208 208 210 206 203 202 207 228 218 227 221 203 196
230 228 216 236 243 227 221 224 223 229 228 221 234 237 235 222 224 210 216 216 217 217 220 214 211 209 204 204 202 198 200 203 207 208 225 220 216 232 229 207 197 196 195 192
237 235 234 238 242 230 232 224 232 198 227 230 225 227 223 225 220 200 214 203 209 213 216 216 211 210 201 203 211 219 216 222 213 220 219 223 208 197 198 196 193 196 211 208
239 237 234 243 215 218 223 212 227 232 235 224 221 221 212 132 210 208 205 200 208 212 211 212 219 233 214 209 218 219 213 234 217 207 200 193 197 197 192 193 212 212 203 202
225 242 238 227 223 217 218 222 224 223 229 231 226 224 209 210 210 209 215 208 206 207 218 214 210 206 214 241 204 218 214 203 197 196 190 197 196 193 199 207 206 198 191 191
215 224 227 225 219 216 230 224 221 213 214 207 207 209 213 214 212 217 218 224 231 210 201 198 212 228 204 205 218 210 196 199 190 194 197 197 203 226 211 208 192 200 207 209
206 222 221 224 221 226 239 224 219 218 221 218 220 212 214 216 213 214 209 209 209 216 218 221 211 207 219 212 205 198 192 191 196 194 194 211 204 204 203 201 203 200 203 205
205 213 221 216 215 217 215 221 219 226 214 211 210 207 206 208 205 203 207 212 213 209 208 204 202 219 210 202 199 192 188 195 193 191 191 196 198 196 198 203 208 211 198 193
243 205 212 214 222 202 206 206 214 210 203 204 205 206 208 210 225 217 210 207 202 205 199 222 219 202 196 200 195 193 193 192 192 193 195 198 202 207 210 210 200 187 191 192
254 232 205 213 214 211 195 202 204 205 209 209 214 222 215 221 210 212 204 207 210 234 230 216 205 197 196 187 184 190 191 190 191 195 198 200 206 204 193 192 193 190 198 206
262 244 209 212 213 214 204 204 196 213 212 214 214 218 211 205 203 204 208 240 231 228 210 206 202 189 191 194 193 188 183 190 194 199 204 199 190 192 195 188 194 203 206 205
265 239 211 237 208 206 205 200 213 213 222 217 213 211 212 205 225 236 227 218 218 209 197 192 192 194 194 194 191 189 196 200 204 196 189 193 204 196 193 204 205 203 203 209
267 243 216 211 203 201 203 212 221 221 214 207 210 205 206 221 232 219 217 208 198 196 197 192 197 194 197 200 202 203 203 196 188 185 201 203 194 195 203 203 195 205 214 212
256 243 218 225 213 203 210 203 208 221 207 210 202 206 209 210 198 201 202 201 192 193 191 191 193 198 201 209 199 192 190 191 196 203 199 192 202 201 198 204 206 213 209 234
265 240 215 219 222 209 205 219 210 219 206 208 202 204 209 213 198 195 198 194 192 194 200 206 209 211 204 201 188 189 195 199 203 197 195 202 194 206 199 205 210 212 226 224
291 238 220 219 225 209 204 218 217 216 205 203 200 203 204 209 208 204 199 196 199 200 204 204 203 195 192 194 196 197 196 199 192 204 201 193 201 203 203 210 212 218 223 220
275 260 222 220 224 214 206 207 216 211 203 200 207 205 199 199 198 198 197 199 201 204 196 191 192 194 192 197 194 193 203 183 208 201 194 203 200 201 205 213 216 228 226 234
273 220 230 219 227 220 210 207 209 204 207 203 201 203 204 200 197 198 201 198 202 196 191 190 195 189 193 193 196 200 206 208 204 191 202 200 203 208 215 218 207 230 238 240
268 220 230 223 219 213 209 209 207 204 205 207 204 201 201 198 193 199 198 191 192 195 197 197 193 188 198 198 199 206 204 205 188 204 202 205 212 216 216 240 233 233 240 252
273 225 224 222 219 216 212 207 209 209 202 202 203 201 201 200 198 198 196 191 191 191 198 186 199 198 199 204 187 206 203 185 205 202 206 200 212 220 226 240 230 238 253 255
267 221 228 218 208 218 218 212 206 209 208 204 204 197 193 198 200 202 205 203 198 196 183 196 195 191 203 203 204 201 203 204 203 209 215 210 224 224 239 229 238 255 264 275
237 210 233 221 205 206 218 213 210 203 207 203 201 202 201 199 196 193 190 193 193 188 195 196 188 203 209 202 203 206 205 203 206 217 222 226 231 239 230 238 254 267 274 274
226 230 235 221 210 204 215 219 215 203 202 199 199 200 199 198 197 192 201 193 192 202 202 197 206 199 202 201 203 206 210 212 221 228 225 242 239 241 240 258 276 274 263 273
Wind_Speed
26 16 12 20 24 26 28 27 26 23 30 41 34 45 44 36 36 45 55 51 59 51 56 42 42 37 61 45 55 63 60 60 65 67 67 61 73 79 87 79 76 78 81 79
22 18 16 17 21 23 25 22 23 22 23 25 42 41 33 34 38 47 45 55 39 42 39 45 38 35 37 50 59 45 50 58 63 56 57 61 65 67 70 72 72 75 79 84
20 13 12 15 18 24 22 17 19 17 17 19 21 29 32 29 38 35 40 42 43 44 43 41 41 40 47 43 45 48 52 54 56 56 58 63 67 69 71 74 78 76 68 70
14 8 14 13 13 22 18 20 16 14 20 24 27 31 33 38 38 41 43 40 40 37 33 37 37 41 37 40 43 47 47 50 54 54 57 61 65 68 67 67 63 63 67 71
14 8 6 14 23 15 13 17 20 22 24 28 29 30 33 38 38 31 33 31 32 32 31 32 34 37 41 43 44 48 53 54 56 59 56 58 59 56 55 59 64 66 69 72
20 14 9 10 13 15 15 16 19 25 25 31 25 28 28 30 29 34 34 32 31 32 36 36 38 39 42 45 46 46 49 50 51 50 50 48 51 56 58 61 66 69 68 69
18 15 7 13 13 16 17 21 20 23 28 28 25 22 25 41 30 33 32 34 33 34 39 39 38 35 36 40 41 40 43 39 41 45 50 53 54 56 61 65 64 65 65 68
21 16 10 14 16 19 20 22 22 20 20 25 24 21 26 30 32 34 32 31 32 34 37 36 36 36 36 30 37 39 40 42 46 48 53 55 57 58 61 62 64 64 69 74
21 24 15 15 19 21 25 23 21 24 24 23 22 24 28 30 30 30 31 28 28 30 33 37 38 32 37 38 36 37 43 46 50 54 57 58 59 59 61 63 66 68 70 73
29 26 25 19 18 21 26 25 22 26 26 22 19 25 31 30 31 30 30 29 28 29 32 35 35 36 37 37 37 38 44 50 54 57 59 59 61 63 65 67 69 73 76 77
30 30 25 20 18 16 22 22 21 24 29 25 20 26 29 26 29 30 32 30 32 31 32 33 36 36 37 40 40 43 48 51 55 58 61 62 63 67 70 70 72 72 79 82
36 30 31 28 19 29 25 24 23 22 27 28 24 26 28 28 26 25 30 31 32 33 34 33 33 39 44 44 46 49 51 54 56 60 62 64 67 70 69 69 72 78 82 87
46 34 33 35 27 25 28 33 29 27 28 30 25 26 26 25 24 24 31 36 36 33 31 33 35 40 43 47 53 54 56 60 63 66 67 68 68 67 72 75 79 82 89 90
41 35 34 35 31 26 31 35 33 29 28 29 27 26 23 23 29 32 34 30 33 32 32 34 35 42 47 48 50 56 60 61 63 65 64 66 70 74 76 78 84 86 89 92
44 37 36 32 31 30 32 35 34 28 28 28 29 26 25 26 29 26 29 34 32 29 34 38 41 46 49 51 53 57 59 61 60 63 69 72 71 76 80 83 85 90 93 97
41 38 38 38 34 32 33 39 34 24 28 29 28 30 30 25 26 35 35 34 33 33 37 43 47 49 52 54 57 57 58 61 65 68 71 73 77 81 83 86 87 94 100 102
44 38 39 38 38 33 37 37 35 30 29 29 32 33 30 29 31 33 35 37 40 41 46 49 51 52 53 53 56 61 64 67 69 70 73 78 81 83 86 91 95 99 100 110
47 38 41 41 38 35 41 38 35 32 32 32 35 37 34 29 33 36 37 41 45 49 51 51 50 51 53 54 60 64 67 68 70 74 78 79 82 87 89 95 101 104 111 108
30 40 43 41 39 38 41 39 37 33 32 36 39 38 37 35 34 35 39 44 49 51 52 52 54 56 59 61 64 67 68 71 75 77 79 81 87 92 95 103 106 112 110 111
37 40 41 42 40 40 45 40 38 34 37 41 39 39 39 40 40 42 45 48 50 52 52 55 59 60 63 66 68 70 73 73 79 81 83 89 91 95 102 107 110 113 111 114
37 40 43 45 39 42 46 42 39 40 41 41 42 42 42 42 43 47 50 51 52 53 56 58 60 65 68 70 72 76 78 82 82 82 91 93 99 104 108 111 96 112 114 116
40 39 46 46 42 42 46 46 44 42 42 43 45 45 45 45 48 51 52 53 55 58 61 62 65 68 72 74 78 81 82 84 80 93 95 100 105 108 109 115 113 113 119 123
39 42 47 48 42 46 48 49 47 45 43 45 47 47 47 49 51 53 56 58 60 61 64 66 70 73 76 81 75 85 86 80 93 95 101 96 105 111 113 114 112 118 126 124
40 39 50 47 48 48 49 50 48 47 47 49 50 50 49 50 52 55 57 60 63 64 66 71 73 72 82 83 85 87 91 93 95 102 105 102 110 110 115 112 118 127 127 126
46 43 50 50 51 48 49 52 51 48 48 50 53 54 54 55 55 55 57 62 64 68 72 75 71 83 85 86 88 91 93 95 100 107 109 111 112 115 112 119 129 127 125 123
49 49 53 53 50 47 52 52 52 52 52 53 54 56 57 58 60 61 67 66 70 76 78 78 84 81 85 88 90 95 99 102 107 112 110 116 116 118 120 130 127 126 124 126
Wind_Direction
334 316 239 212 204 207 190 193 203 201 205 230 268 244 248 217 222 261 256 264 270 264 262 245 247 246 271 239 243 276 262 259 262 264 262 289 263 270 271 275 277 277 279 283
348 301 287 226 209 200 194 207 203 204 197 203 238 238 216 216 234 253 251 255 227 230 236 246 240 240 239 263 270 245 250 255 257 279 260 261 266 268 273 277 277 279 282 284
350 337 266 229 213 203 201 212 222 206 212 224 219 216 224 222 226 224 221 217 221 222 227 237 242 241 258 249 252 255 253 255 258 263 266 268 272 273 275 279 280 283 285 284
333 344 266 240 235 226 214 215 209 215 218 211 212 213 214 222 214 218 225 235 236 238 236 236 248 258 259 255 256 259 264 265 268 270 272 274 275 277 281 282 284 285 286 289
309 295 260 270 242 255 232 230 227 222 233 224 230 214 207 216 222 239 238 245 254 256 247 242 245 251 255 260 263 263 268 271 273 275 276 276 278 282 283 284 285 289 291 291
307 294 293 279 249 247 247 243 240 232 225 228 218 223 222 223 228 241 241 244 250 254 257 248 246 250 260 266 269 271 271 273 274 276 278 280 280 283 287 289 290 291 290 291
301 292 255 274 225 238 241 226 240 233 228 231 234 229 231 261 235 237 236 250 258 262 265 265 266 265 263 266 269 275 275 278 279 281 282 285 290 290 290 291 289 289 291 291
291 285 244 228 231 238 238 237 238 241 245 244 249 245 239 238 240 245 246 244 255 263 269 273 274 274 274 272 278 277 280 281 283 285 285 286 287 290 290 288 289 290 289 290
288 271 248 238 244 249 247 243 237 243 242 244 250 249 253 255 255 261 263 264 261 260 270 274 274 277 277 279 276 281 284 288 286 288 287 291 294 291 290 291 292 294 295 293
282 276 268 249 252 260 264 259 258 262 259 252 247 254 258 261 266 272 276 276 270 271 271 268 271 276 272 275 281 286 286 286 288 291 295 297 297 296 296 298 299 297 297 299
274 277 270 258 250 251 261 262 254 255 258 258 245 248 258 261 268 273 273 277 279 277 278 282 284 278 281 283 283 284 284 288 289 291 294 298 299 300 300 300 301 302 300 301
297 269 270 262 250 258 264 271 262 248 255 264 263 267 272 272 273 273 277 274 275 276 280 273 274 280 285 289 290 287 286 287 290 292 295 298 302 303 305 303 299 301 299 301
308 267 261 264 258 253 264 263 265 264 262 266 276 275 272 279 276 271 268 272 274 272 270 272 276 282 285 284 286 289 293 296 297 300 303 303 302 301 298 298 299 301 299 301
308 269 262 264 262 260 254 258 266 263 273 279 279 281 275 277 273 270 268 264 268 274 281 280 281 279 278 280 284 289 293 294 296 297 297 296 295 296 298 302 301 301 305 307
311 264 262 267 265 261 265 266 270 273 277 277 278 279 277 273 273 266 265 272 283 287 283 287 285 282 283 284 284 287 293 294 294 294 293 297 299 300 302 302 305 308 308 309
303 259 260 261 261 264 269 268 269 275 269 275 279 271 273 272 265 276 281 284 281 282 281 276 279 283 290 294 293 292 292 291 293 297 301 301 302 303 307 308 308 310 312 312
296 256 260 261 260 264 264 268 275 273 275 276 272 277 275 275 276 282 284 288 291 288 285 285 285 286 287 290 290 291 295 299 301 303 303 303 305 307 309 311 312 314 313 315
291 252 256 257 260 261 268 269 271 269 270 273 274 277 282 276 275 280 284 285 284 283 282 286 292 293 292 294 294 297 299 303 306 302 303 305 307 309 310 312 314 315 316 315
268 246 250 255 258 259 264 266 267 269 270 272 272 278 282 282 282 282 280 281 282 286 292 297 297 297 298 298 299 302 304 305 302 304 305 307 310 313 313 314 315 316 316 315
269 249 251 254 256 257 264 267 272 271 270 269 276 279 281 284 287 288 286 285 289 293 295 297 298 298 298 300 301 302 306 303 306 306 309 310 312 312 313 314 315 315 314 316
259 254 249 254 254 256 263 268 266 269 270 274 278 280 281 285 288 286 287 291 292 292 293 295 297 297 300 301 302 305 308 309 308 309 310 312 312 313 313 314 313 314 317 318
254 253 250 251 254 258 262 265 267 269 274 275 275 280 284 286 285 288 290 292 294 295 297 299 299 298 300 302 304 309 310 309 309 310 311 311 312 313 313 315 315 316 318 317
253 248 251 252 256 255 258 264 268 272 274 276 279 282 284 285 289 290 291 293 294 296 298 295 300 300 302 305 305 310 308 308 310 310 311 311 312 313 313 315 315 318 317 316
259 251 246 252 257 256 258 263 269 271 274 278 281 280 281 286 288 289 291 291 292 295 292 298 298 302 303 307 308 307 307 309 309 310 310 310 313 312 315 314 317 317 316 317
250 260 246 248 256 262 261 264 268 272 274 277 278 282 285 286 288 290 290 292 293 293 295 298 302 302 304 305 305 306 307 308 308 309 311 312 313 314 315 317 317 316 317 317
249 250 244 248 255 261 264 265 269 273 274 276 280 283 285 287 289 288 292 291 293 296 297 299 301 303 303 304 305 306 307 307 309 311 312 314 314 316 316 316 316 317 316 317